Tracking 32579 objects as of 16-Dec-2025
HD Live streaming from Space Station
objects crossing your sky now

STARLINK-34560

Track STARLINK-34560 now!
10-day predictions
STARLINK-34560 is classified as:


NORAD ID: 64700
Int'l Code: 2025-142E
Perigee: 584.6 km
Apogee: 588.8 km
Inclination: 70.0 °
Period: 96.3 minutes
Semi major axis: 6957 km
RCS: Unknown
Launch date: June 28, 2025
Source: United States (US)
Launch site: AIR FORCE WESTERN TEST RANGE (AFWTR)
Your satellite tracking list
Your tracking list is empty




NASA's NSSDC Master Catalog

Two Line Element Set (TLE):
1 64700U 25142E   25349.88918368  .00001757  00000-0  16475-3 0  9991
2 64700  70.0008 165.1157 0003042 270.2716  89.8093 14.95912803 26900
Source of the keplerian elements: AFSPC